| time (UTC) | temp F | wind direction | speed knots | gust knots | rain 1hr in | rain 24hr in | rain mn in | humidity % | barometer mb |
| 20260507034138 | 45 | 0.0 | 0.0 | 0.00 | 0.00 | 0.00 | 48 | 1006.2 | |
| 20260507033137 | 49 | 0.0 | 0.0 | 0.00 | 0.00 | 0.00 | 43 | 1006.0 | |
| 20260507032137 | 49 | 0.0 | 0.0 | 0.00 | 0.00 | 0.00 | 44 | 1005.6 | |
| 20260507031136 | 48 | 0.0 | 0.0 | 0.00 | 0.00 | 0.00 | 45 | 1005.5 | |
| 20260507030136 | 48 | 0.0 | 0.0 | 0.00 | 0.00 | 0.00 | 45 | 1005.5 | |
| 20260507025135 | 47 | 0.0 | 0.0 | 0.00 | 0.00 | 0.00 | 48 | 1005.4 | |
| 20260507024135 | 46 | 0.0 | 0.0 | 0.00 | 0.00 | 0.00 | 50 | 1005.4 | |
| 20260507023134 | 46 | 0.0 | 0.0 | 0.00 | 0.00 | 0.00 | 52 | 1005.3 | |
| 20260507022134 | 45 | 0.0 | 0.0 | 0.00 | 0.00 | 0.00 | 53 | 1005.5 | |
| 20260507021133 | 44 | 0.0 | 0.0 | 0.00 | 0.00 | 0.00 | 58 | 1005.4 | |
| 20260507020133 | 42 | 0.0 | 0.0 | 0.00 | 0.00 | 0.00 | 62 | 1005.4 | |
| 20260507015132 | 41 | 0.0 | 0.0 | 0.00 | 0.00 | 0.00 | 69 | 1005.5 | |
| 20260507014132 | 38 | 0.0 | 0.0 | 0.00 | 0.00 | 0.00 | 81 | 1005.5 | |
| 20260507013132 | 34 | 0.0 | 0.0 | 0.00 | 0.00 | 0.00 | 97 | 1005.7 | |
| 20260507012131 | 34 | 0.0 | 0.0 | 0.00 | 0.00 | 0.00 | 97 | 1005.8 | |
| 20260507011131 | 34 | 0.0 | 0.0 | 0.00 | 0.00 | 0.00 | 99 | 1005.7 | |
| 20260507010130 | 33 | 0.0 | 0.0 | 0.00 | 0.00 | 0.00 | 1005.7 | ||
| 20260507005129 | 32 | 0.0 | 0.0 | 0.00 | 0.00 | 0.00 | 1005.7 | ||
| 20260507004129 | 32 | 0.0 | 0.0 | 0.00 | 0.00 | 0.00 | 1005.8 | ||
| 20260507003128 | 32 | 0.0 | 0.0 | 0.00 | 0.00 | 0.00 | 1005.8 | ||
| 20260507002128 | 32 | 0.0 | 0.0 | 0.00 | 0.00 | 0.00 | 1005.7 | ||
| 20260507001127 | 32 | 0.0 | 0.0 | 0.00 | 0.00 | 0.00 | 1005.6 | ||
| 20260507000127 | 32 | 0.0 | 0.0 | 0.00 | 0.00 | 0.00 | 1005.6 | ||
| 20260506235127 | 32 | 0.0 | 0.0 | 0.00 | 0.00 | 0.00 | 1005.5 | ||
| 20260506234126 | 32 | 0.0 | 0.0 | 0.00 | 0.00 | 0.00 | 1005.5 | ||
| 20260506233126 | 32 | 0.0 | 0.0 | 0.00 | 0.00 | 0.00 | 98 | 1005.3 | |
| 20260506232125 | 33 | 0.0 | 0.0 | 0.00 | 0.00 | 0.00 | 96 | 1005.4 | |
| 20260506231125 | 33 | 0.0 | 0.0 | 0.00 | 0.00 | 0.00 | 92 | 1005.3 | |
| 20260506230124 | 33 | 0.0 | 0.0 | 0.00 | 0.00 | 0.00 | 87 | 1005.3 | |
| 20260506225124 | 34 | 0.0 | 0.0 | 0.00 | 0.00 | 0.00 | 83 | 1005.1 | |
| 20260506224123 | 34 | 0.0 | 0.0 | 0.00 | 0.00 | 0.00 | 80 | 1005.0 | |
| 20260506223123 | 35 | 0.0 | 0.0 | 0.00 | 0.00 | 0.00 | 82 | 1005.1 | |
| 20260506222122 | 34 | 0.0 | 0.0 | 0.00 | 0.00 | 0.00 | 81 | 1005.0 | |
| 20260506221122 | 34 | 0.0 | 0.0 | 0.00 | 0.00 | 0.00 | 81 | 1004.9 | |
| 20260506220121 | 34 | 0.0 | 0.0 | 0.00 | 0.00 | 0.00 | 79 | 1004.9 | |
| 20260506215121 | 35 | 0.0 | 0.0 | 0.00 | 0.00 | 0.00 | 80 | 1004.8 | |
| 20260506214120 | 35 | 0.0 | 0.0 | 0.00 | 0.00 | 0.00 | 79 | 1004.8 | |
| 20260506213120 | 34 | 0.0 | 0.0 | 0.00 | 0.00 | 0.00 | 80 | 1004.8 | |
| 20260506212119 | 35 | 0.0 | 0.0 | 0.00 | 0.00 | 0.00 | 80 | 1004.7 | |
| 20260506211119 | 34 | 0.0 | 0.0 | 0.00 | 0.00 | 0.00 | 81 | 1004.6 | |
| 20260506210118 | 34 | 0.0 | 0.0 | 0.00 | 0.00 | 0.00 | 83 | 1004.5 | |
| 20260506205118 | 34 | 0.0 | 0.0 | 0.00 | 0.00 | 0.00 | 85 | 1004.4 | |
| 20260506204117 | 34 | 0.0 | 0.0 | 0.00 | 0.00 | 0.00 | 83 | 1004.4 | |
| 20260506203117 | 34 | 0.0 | 0.0 | 0.00 | 0.00 | 0.00 | 82 | 1004.2 | |
| 20260506202116 | 34 | 0.0 | 0.0 | 0.00 | 0.00 | 0.00 | 82 | 1004.2 | |
| 20260506201116 | 34 | 0.0 | 0.0 | 0.00 | 0.00 | 0.00 | 80 | 1004.1 | |
| 20260506200115 | 35 | 0.0 | 0.0 | 0.00 | 0.00 | 0.00 | 78 | 1004.1 | |
| 20260506195115 | 35 | 0.0 | 0.0 | 0.00 | 0.00 | 0.00 | 77 | 1004.0 | |
| 20260506194114 | 35 | 0.0 | 0.0 | 0.00 | 0.00 | 0.00 | 75 | 1003.9 | |
| 20260506193114 | 35 | 0.0 | 0.0 | 0.00 | 0.00 | 0.00 | 74 | 1003.8 | |
| 20260506192113 | 35 | 0.0 | 0.0 | 0.00 | 0.00 | 0.00 | 74 | 1003.8 | |
| 20260506191112 | 36 | 0.0 | 0.0 | 0.00 | 0.00 | 0.00 | 73 | 1003.7 | |
| 20260506190111 | 36 | 0.0 | 0.0 | 0.00 | 0.00 | 0.00 | 69 | 1003.6 | |
| 20260506185111 | 36 | 0.0 | 0.0 | 0.00 | 0.00 | 0.00 | 68 | 1003.5 | |
| 20260506184110 | 37 | 0.0 | 0.0 | 0.00 | 0.00 | 0.00 | 66 | 1003.4 | |
| 20260506183110 | 37 | 0.0 | 0.0 | 0.00 | 0.00 | 0.00 | 65 | 1003.3 | |
| 20260506182109 | 37 | 0.0 | 0.0 | 0.00 | 0.00 | 0.00 | 63 | 1003.3 | |
| 20260506181109 | 37 | 0.0 | 0.0 | 0.00 | 0.00 | 0.00 | 61 | 1003.2 | |
| 20260506180108 | 38 | 0.0 | 0.0 | 0.00 | 0.00 | 0.00 | 60 | 1003.2 | |
| 20260506175108 | 38 | 0.0 | 0.0 | 0.00 | 0.00 | 0.00 | 59 | 1003.1 | |
| 20260506174107 | 38 | 0.0 | 0.0 | 0.00 | 0.00 | 0.00 | 57 | 1003.0 | |
| 20260506173107 | 39 | 0.0 | 0.0 | 0.00 | 0.00 | 0.00 | 58 | 1003.0 | |
| 20260506172106 | 39 | 0.0 | 0.0 | 0.00 | 0.00 | 0.00 | 57 | 1003.0 | |
| 20260506171106 | 39 | 0.0 | 0.0 | 0.00 | 0.00 | 0.00 | 58 | 1002.9 | |
| 20260506170105 | 39 | 0.0 | 0.0 | 0.00 | 0.00 | 0.00 | 60 | 1002.9 | |
| 20260506165105 | 39 | 0.0 | 0.0 | 0.00 | 0.00 | 0.00 | 62 | 1002.8 | |
| 20260506164104 | 39 | 0.0 | 0.0 | 0.00 | 0.00 | 0.00 | 62 | 1002.7 | |
| 20260506163104 | 40 | 0.0 | 0.0 | 0.00 | 0.00 | 0.00 | 61 | 1002.6 | |
| 20260506162103 | 40 | 0.0 | 0.0 | 0.00 | 0.00 | 0.00 | 58 | 1002.5 | |
| 20260506161103 | 40 | 0.0 | 0.0 | 0.00 | 0.00 | 0.00 | 57 | 1002.5 | |
| 20260506155102 | 41 | 0.0 | 0.0 | 0.00 | 0.00 | 0.00 | 56 | 1002.3 | |
| 20260506154101 | 42 | 0.0 | 0.0 | 0.00 | 0.00 | 0.00 | 51 | 1002.2 | |
| 20260506153101 | 42 | 0.0 | 0.0 | 0.00 | 0.00 | 0.00 | 51 | 1002.1 | |
| 20260506152100 | 41 | 0.0 | 0.0 | 0.00 | 0.00 | 0.00 | 50 | 1002.0 | |
| 20260506151100 | 41 | 0.0 | 0.0 | 0.00 | 0.00 | 0.00 | 49 | 1001.9 | |
| 20260506150059 | 42 | 0.0 | 0.0 | 0.00 | 0.00 | 0.00 | 48 | 1001.9 | |
| 20260506145059 | 42 | 0.0 | 0.0 | 0.00 | 0.00 | 0.00 | 48 | 1001.8 | |
| 20260506144058 | 42 | 0.0 | 0.0 | 0.00 | 0.00 | 0.00 | 47 | 1001.7 | |
| 20260506143058 | 43 | 0.0 | 0.0 | 0.00 | 0.00 | 0.00 | 46 | 1001.7 | |
| 20260506142057 | 44 | 0.0 | 0.0 | 0.00 | 0.00 | 0.00 | 46 | 1001.5 | |
| 20260506141057 | 43 | 0.0 | 0.0 | 0.00 | 0.00 | 0.00 | 47 | 1001.5 | |
| 20260506140056 | 43 | 0.0 | 0.0 | 0.00 | 0.00 | 0.00 | 48 | 1001.5 | |
| 20260506135056 | 43 | 0.0 | 0.0 | 0.00 | 0.00 | 0.00 | 50 | 1001.2 | |
| 20260506134055 | 44 | 0.0 | 0.0 | 0.00 | 0.00 | 0.00 | 49 | 1001.3 | |
| 20260506133055 | 43 | 0.0 | 0.0 | 0.00 | 0.00 | 0.00 | 48 | 1001.3 | |
| 20260506132055 | 44 | 0.0 | 0.0 | 0.00 | 0.00 | 0.00 | 48 | 1001.2 | |
| 20260506131054 | 43 | 0.0 | 0.0 | 0.00 | 0.00 | 0.00 | 48 | 1001.1 | |
| 20260506130054 | 43 | 0.0 | 0.0 | 0.00 | 0.00 | 0.00 | 49 | 1001.1 | |
| 20260506125053 | 43 | 0.0 | 0.0 | 0.00 | 0.00 | 0.00 | 48 | 1001.0 | |
| 20260506124053 | 42 | 0.0 | 0.0 | 0.00 | 0.00 | 0.00 | 50 | 1001.0 | |
| 20260506123052 | 42 | 0.0 | 0.0 | 0.00 | 0.00 | 0.00 | 51 | 1001.0 | |
| 20260506122052 | 43 | 0.0 | 0.0 | 0.00 | 0.00 | 0.00 | 51 | 1000.8 | |
| 20260506121051 | 42 | 0.0 | 0.0 | 0.00 | 0.00 | 0.00 | 53 | 1000.7 | |
| 20260506120051 | 41 | 0.0 | 0.0 | 0.00 | 0.00 | 0.00 | 60 | 1000.7 | |
| 20260506115050 | 41 | 0.0 | 0.0 | 0.00 | 0.00 | 0.00 | 60 | 1000.7 | |
| 20260506114050 | 44 | 0.0 | 0.0 | 0.00 | 0.00 | 0.00 | 49 | 1000.3 | |
| 20260506113049 | 46 | 0.0 | 0.0 | 0.00 | 0.00 | 0.00 | 48 | 100.0 | |
| 20260506112049 | 44 | 0.0 | 0.0 | 0.00 | 0.00 | 0.00 | 50 | 100.0 | |
| 20260506111048 | 43 | 0.0 | 0.0 | 0.00 | 0.00 | 0.00 | 53 | 100.0 | |
| 20260506110048 | 42 | 0.0 | 0.0 | 0.00 | 0.00 | 0.00 | 57 | 100.0 | |
| 20260506105047 | 44 | 0.0 | 0.0 | 0.00 | 0.00 | 0.00 | 54 | 999.9 | |
| 20260506104047 | 43 | 0.0 | 0.0 | 0.00 | 0.00 | 0.00 | 57 | 999.8 | |
| 20260506103046 | 42 | 0.0 | 0.0 | 0.00 | 0.00 | 0.00 | 64 | 999.8 | |
| 20260506102046 | 41 | 0.0 | 0.0 | 0.00 | 0.00 | 0.00 | 70 | 999.8 | |
| 20260506101045 | 42 | 0.0 | 0.0 | 0.00 | 0.00 | 0.00 | 64 | 999.9 | |
| 20260506100045 | 47 | 0.0 | 0.0 | 0.00 | 0.00 | 0.00 | 44 | 999.3 | |
| 20260506095044 | 45 | 0.0 | 0.0 | 0.00 | 0.00 | 0.00 | 45 | 999.1 | |
| 20260506094044 | 44 | 0.0 | 0.0 | 0.00 | 0.00 | 0.00 | 47 | 999.1 | |
| 20260506093043 | 43 | 0.0 | 0.0 | 0.00 | 0.00 | 0.00 | 51 | 999.1 | |
| 20260506092043 | 44 | 0.0 | 0.0 | 0.00 | 0.00 | 0.00 | 47 | 999.0 | |
| 20260506091042 | 48 | 0.0 | 0.0 | 0.00 | 0.00 | 0.00 | 38 | 998.8 | |
| 20260506090157 | 60 | 0.0 | 0.0 | 0.00 | 0.00 | 0.00 | 25 | 998.4 | |
| 20260506090042 | 62 | 0.0 | 0.0 | 0.00 | 0.00 | 0.00 | 23 | 998.3 | |
| 20260506085306 | 65 | 0.0 | 0.0 | 0.00 | 0.00 | 0.00 | 20 | 998.0 | |
| 20260506084304 | 54 | 0.0 | 0.0 | 0.00 | 0.00 | 0.00 | 28 | 998.1 | |
| 20260506083303 | 47 | 0.0 | 0.0 | 0.00 | 0.00 | 0.00 | 35 | 998.0 | |
| 20260506082305 | 48 | 0.0 | 0.0 | 0.00 | 0.00 | 0.00 | 34 | 997.9 | |
| 20260506081303 | 57 | 0.0 | 0.0 | 0.00 | 0.00 | 0.00 | 24 | 997.8 | |
| 20260506080302 | 59 | 0.0 | 0.0 | 0.00 | 0.00 | 0.00 | 20 | 996.9 | |
| 20260506073301 | 57 | 0.0 | 0.0 | 0.00 | 0.00 | 0.00 | 24 | 996.8 | |
| 20260506072300 | 46 | 0.0 | 0.0 | 0.00 | 0.00 | 0.00 | 40 | 997.0 | |
| 20260506071300 | 57 | 0.0 | 0.0 | 0.00 | 0.00 | 0.00 | 26 | 997.1 | |
| 20260506070259 | 57 | 0.0 | 0.0 | 0.00 | 0.00 | 0.00 | 27 | 996.5 | |
| 20260506062257 | 42 | 0.0 | 0.0 | 0.00 | 0.00 | 0.00 | 52 | 996.9 | |
| 20260506061257 | 43 | 0.0 | 0.0 | 0.00 | 0.00 | 0.00 | 53 | 996.8 | |
| 20260506060256 | 44 | 0.0 | 0.0 | 0.00 | 0.00 | 0.00 | 53 | 996.7 | |
| 20260506051254 | 38 | 0.0 | 0.0 | 0.00 | 0.00 | 0.00 | 75 | 996.6 | |
| 20260506050253 | 38 | 0.0 | 0.0 | 0.00 | 0.00 | 0.00 | 72 | 996.7 | |
| 20260506044252 | 38 | 0.0 | 0.0 | 0.00 | 0.00 | 0.00 | 74 | 996.4 | |
| 20260506043252 | 38 | 0.0 | 0.0 | 0.00 | 0.00 | 0.00 | 71 | 996.3 | |
| 20260506042251 | 39 | 0.0 | 0.0 | 0.00 | 0.00 | 0.00 | 70 | 996.2 | |
| 20260506041251 | 42 | 0.0 | 0.0 | 0.00 | 0.00 | 0.00 | 60 | 996.0 | |
| 20260506040250 | 42 | 0.0 | 0.0 | 0.00 | 0.00 | 0.00 | 64 | 995.8 | |
| 20260506035250 | 40 | 0.0 | 0.0 | 0.00 | 0.00 | 0.00 | 70 | 995.9 |